Columbia Owens, SC

9:49 AM EDT on May 25, 2017 (GMT -0400)
Columbia Owens Downtown

Weather History for KCUB - July, 2013

Change the Weather History Date:

Sunday, July 21, 2013

  Actual Average Record
Temperature  
Mean Temperature 79 °F 83 °F  
Max Temperature 86 °F 93 °F 103 °F (2011)
Min Temperature 72 °F 73 °F 68 °F (2001)
Degree Days  
Heating Degree Days 0 0  
Month to date heating degree days 0 0  
Since 1 June heating degree days 0 0  
Since 1 July heating degree days 0 0  
Cooling Degree Days 14 18  
Month to date cooling degree days 333 371  
Year to date cooling degree days 1100 1140  
Since 1 June cooling degree days 790 804  
Growing Degree Days 28 (Base 50)    
Moisture  
Dew Point 73 °F    
Average Humidity 85    
Maximum Humidity 94    
Minimum Humidity 70    
Precipitation  
Precipitation 2.06 in 0.13 in 2.06 in (2013)
Month to date precipitation 11.04 3.74  
Year to date precipitation 34.58 25.47  
Sea Level Pressure  
Sea Level Pressure 30.00 in    
Wind  
Wind Speed 4 mph (SW)    
Max Wind Speed 18 mph    
Max Gust Speed 29 mph    
Visibility 8 miles    
Events Fog , Rain    
T = Trace of Precipitation, MM = Missing Value Source: NWS Daily Summary

Daily Weather History Graph

Daily Weather History Graph

Search for Another Location

Airport or City:

Trip Planner

Search our weather history database for the weather conditions in past years. The results will help you decide how hot, cold, wet, or windy it might be!

Date:

Astronomy

Jul. 21, 2013 Rise Set
Actual Time 6:27 AM EDT 8:32 PM EDT
Civil Twilight 5:59 AM EDT 9:00 PM EDT
Nautical Twilight 5:25 AM EDT 9:34 PM EDT
Astronomical Twilight 4:48 AM EDT 10:11 PM EDT
Moon 7:31 PM EDT (7/21) 5:11 AM EDT (7/21)
Length of Visible Light 15h 00m
Length of Day
14h 04m
Waxing Gibbous, 98% of the Moon is Illuminated
Jul 21
Waxing Gibbous
Jul 22
Full
Jul 29
Last Quarter
Aug 6
New
Aug 14
First Quarter

Hourly Weather History & Observations

Time (EDT) Temp. Heat Index Dew Point Humidity Pressure Visibility Wind Dir Wind Speed Gust Speed Precip Events Conditions
12:16 AM 77.0 °F - 73.4 °F 89% 30.04 in 10.0 mi SSW 3.5 mph - N/A   Overcast
12:53 AM 77.0 °F - 73.0 °F 88% 30.03 in 10.0 mi WSW 3.5 mph - N/A   Overcast
1:53 AM 77.0 °F - 73.0 °F 88% 30.01 in 10.0 mi SSW 3.5 mph - N/A   Mostly Cloudy
2:30 AM 77.0 °F - 73.4 °F 89% 30.02 in 10.0 mi South 4.6 mph - N/A   Mostly Cloudy
2:53 AM 75.9 °F - 73.0 °F 91% 30.00 in 10.0 mi SSW 3.5 mph - N/A   Overcast
3:24 AM 75.2 °F - 73.4 °F 94% 30.01 in 10.0 mi Calm Calm - N/A   Mostly Cloudy
3:53 AM 77.0 °F - 73.0 °F 88% 30.00 in 10.0 mi SW 4.6 mph - N/A   Overcast
4:53 AM 77.0 °F - 73.0 °F 88% 29.99 in 10.0 mi SW 3.5 mph - N/A   Overcast
5:53 AM 75.9 °F - 73.0 °F 91% 29.99 in 10.0 mi SW 3.5 mph - N/A   Mostly Cloudy
6:12 AM 77.0 °F - 73.4 °F 89% 30.00 in 10.0 mi SSW 3.5 mph - N/A   Mostly Cloudy
6:53 AM 77.0 °F - 73.0 °F 88% 30.00 in 10.0 mi South 3.5 mph - N/A   Overcast
7:53 AM 78.1 °F - 73.0 °F 84% 30.02 in 10.0 mi WSW 3.5 mph - N/A   Overcast
8:53 AM 78.1 °F - 73.0 °F 84% 30.03 in 10.0 mi SW 6.9 mph - N/A   Overcast
9:10 AM 78.8 °F - 73.4 °F 83% 30.04 in 10.0 mi SW 6.9 mph - N/A   Overcast
9:53 AM 80.1 °F 84.2 °F 73.0 °F 79% 30.04 in 10.0 mi SW 6.9 mph - N/A   Mostly Cloudy
10:53 AM 81.0 °F 85.8 °F 73.0 °F 77% 30.04 in 10.0 mi WSW 4.6 mph - N/A   Overcast
11:53 AM 81.0 °F 85.8 °F 73.0 °F 77% 30.04 in 10.0 mi SW 5.8 mph - N/A   Overcast
12:21 PM 82.4 °F 88.2 °F 73.4 °F 74% 30.05 in 10.0 mi SSW 6.9 mph - N/A   Overcast
12:50 PM 84.2 °F 90.9 °F 73.4 °F 70% 30.03 in 10.0 mi South 5.8 mph - N/A   Mostly Cloudy
12:53 PM 84.9 °F 91.4 °F 73.0 °F 67% 30.02 in 10.0 mi Variable 3.5 mph - N/A   Mostly Cloudy
1:01 PM 84.2 °F 90.9 °F 73.4 °F 70% 30.02 in 10.0 mi SSW 4.6 mph - N/A   Mostly Cloudy
1:46 PM 82.4 °F 89.5 °F 75.2 °F 79% 30.01 in 10.0 mi Calm Calm - 0.00 in   Mostly Cloudy
1:53 PM 82.9 °F 90.8 °F 75.9 °F 79% 30.00 in 10.0 mi Calm Calm - 0.00 in   Mostly Cloudy
2:14 PM 82.4 °F 88.2 °F 73.4 °F 74% 30.00 in 10.0 mi South 10.4 mph - N/A   Mostly Cloudy
2:23 PM 82.4 °F 88.2 °F 73.4 °F 74% 30.00 in 10.0 mi South 8.1 mph - N/A   Overcast
2:53 PM 82.0 °F 87.9 °F 73.9 °F 76% 29.98 in 10.0 mi South 5.8 mph - N/A   Partly Cloudy
3:53 PM 81.0 °F 86.2 °F 73.9 °F 79% 29.96 in 10.0 mi SSE 8.1 mph - N/A   Clear
4:53 PM 84.0 °F 91.2 °F 73.9 °F 72% 29.95 in 10.0 mi Variable 4.6 mph - N/A   Clear
5:53 PM 84.0 °F 91.2 °F 73.9 °F 72% 29.94 in 7.0 mi WSW 3.5 mph - 0.00 in Rain Light Rain
6:04 PM 82.4 °F 92.4 °F 78.8 °F 89% 29.94 in 2.5 mi NNE 3.5 mph - 0.02 in Rain Rain
6:12 PM 82.4 °F 92.4 °F 78.8 °F 89% 29.94 in 9.0 mi NE 3.5 mph - 0.02 in Rain Light Rain
6:53 PM 82.0 °F 91.0 °F 78.1 °F 88% 29.94 in 8.0 mi Calm Calm - 0.02 in   Mostly Cloudy
7:43 PM 75.2 °F - 71.6 °F 89% 29.98 in 1.8 mi NW 11.5 mph 28.8 mph 0.05 in Rain Rain
7:47 PM 73.4 °F - 69.8 °F 88% 29.99 in 0.8 mi NNW 10.4 mph 21.9 mph 0.11 in Rain Heavy Rain
7:53 PM 73.0 °F - 70.0 °F 90% 29.98 in 1.0 mi Variable 5.8 mph 20.7 mph 0.15 in Rain Rain
8:01 PM 73.4 °F - 69.8 °F 88% 29.99 in 1.8 mi Variable 3.5 mph - 0.02 in Rain Rain
8:08 PM 71.6 °F - 69.8 °F 94% 29.99 in 0.8 mi NNE 4.6 mph - 0.21 in Rain Heavy Rain
8:21 PM 73.4 °F - 71.6 °F 94% 29.99 in 0.2 mi WNW 11.5 mph 17.3 mph 1.16 in Fog , Rain Heavy Rain
8:32 PM 73.4 °F - 71.6 °F 94% 30.01 in 0.5 mi WSW 6.9 mph - 1.52 in Fog , Rain Heavy Rain
8:41 PM 73.4 °F - 71.6 °F 94% 30.00 in 1.2 mi WSW 5.8 mph - 1.65 in Rain Heavy Rain
8:53 PM 73.0 °F - 72.0 °F 96% 29.99 in 1.5 mi Calm Calm - 1.78 in Rain Heavy Rain
9:04 PM 73.4 °F - 71.6 °F 94% 30.00 in 3.0 mi South 3.5 mph - 0.06 in Rain Heavy Rain
9:53 PM 73.9 °F - 72.0 °F 93% 30.01 in 10.0 mi SSW 3.5 mph - 0.09 in   Partly Cloudy
10:53 PM 75.0 °F - 73.9 °F 96% 30.01 in 10.0 mi Calm Calm - 0.01 in   Mostly Cloudy
11:53 PM 75.0 °F - 73.9 °F 96% 30.00 in 10.0 mi Calm Calm - 0.01 in   Clear